Weather in Tomashpil

Ukraine / Vinnytsia Region     48°33′01″N   28°31′17″E
temp.,
°C
wind,
m/s
gust,
m/s
humid.,
%
clouds,
%
prec.,
mm/h
press.,
hPa
HPBL,
m
1 august, sun
sun100:00+21sse33700 0.0 100944
03:00+20sse33775 0.0 100941
06:00+19sse22856 0.6 100919
09:00+23wsw21740 0.7 1010361
12:00+27w23590 0.0 1010996
15:00+29w34500 0.0 10101566
18:00+29wsw33512 0.0 10091394
21:00+23s22653 0.0 100913
2 august, mon
mon200:00+22sse34657 0.0 100955
03:00+21se4977100 0.6 1008143
06:00+21sse51277100 0.0 1006234
09:00+23s5117345 0.0 1007300
12:00+28ssw475474 0.0 1007591
15:00+28nw235667 0.0 1007583
18:00+21nnw23823 3.8 1009136
21:00+20nnw410870 3.8 1010305
3 august, tue
tue300:00+17nnw511880 0.0 1013305
03:00+15nnw39920 0.0 1014225
06:00+14nnw36946 0.0 1015147
09:00+18nw347599 0.0 1016440
12:00+22nw45573 0.0 10171254
15:00+25wnw354769 0.0 10162054
18:00+21nnw376345 0.0 1016226
21:00+18nne22715 0.0 101712
4 august, wed
wed400:00+17ene33710 0.0 101826
03:00+16ese22735 0.0 101822
06:00+15ese22751 0.0 101824
09:00+19se246888 0.0 1018181
12:00+25s565182 0.0 10171427
15:00+27s45485 0.0 10161784
18:00+27s345221 0.0 10151612
21:00+22sse3466100 0.0 101559
5 august, thu
thu500:00+21se41065100 0.0 1015171
03:00+19e247898 1.1 101587
06:00+17e479122 0.9 1015122
09:00+22sse61269100 0.9 1014551
12:00+27s8104928 0.0 10131038
15:00+29s7943100 0.0 10121441
18:00+29s694741 0.0 10101002
21:00+25sse714525 0.0 1009467